Погода в Картерадосе

Греция     36°24′37″N   25°26′26″E
темп.,
°C
ветер,
м/с
пор.,
м/с
влажн.,
%
обл.,
%
осадки,
мм/ч
давл.,
гПа
погр.,
м
27 ноября, сб
сб2723:00+19зюз91379100 0.0 1013743
02:00+19зюз91274100 0.0 1013724
05:00+19зюз61076100 0.0 1013568
08:00+19зюз61077100 0.0 1014624
11:00+19юз81076100 0.0 1014533
14:00+19ю7880100 0.0 1012695
17:00+19ююв667796 0.0 1012319
20:00+19ююв7977100 0.0 1011389
28 ноября, вс
вс2823:00+19ю8128098 0.0 1011406
02:00+20ююз1115755 0.1 1010418
05:00+20зюз131777100 0.1 1010937
08:00+19зюз121583100 0.1 1012914
11:00+19зюз91280100 0.0 1013837
14:00+19юз697869 0.0 1011369
17:00+19юв61182100 0.0 1011375
20:00+19ююв91284100 0.0 1011287
29 ноября, пн
пн2923:00+21ю111767100 0.0 1009283
02:00+22ю152265100 0.0 1007309
05:00+21ююз121869100 0.0 1007284
08:00+20юз81380100 0.0 1009289
11:00+19зюз71282100 0.0 1011552
14:00+19з121878100 0.0 1010713
17:00+19зюз121678100 0.0 10101036
20:00+18зюз131870100 0.0 10121259
30 ноября, вт
вт3023:00+18зюз1316712 0.0 10121588
02:00+18зюз1217640 0.0 10121886
05:00+18зюз1620695 0.0 10111933
08:00+17зюз172180100 1.0 10121745
11:00+17зюз16226974 1.1 10131927
14:00+17з1620665 1.1 10131936
17:00+17з1417645 0.0 10131948
20:00+17з1516573 0.0 10151828
1 декабря, ср
ср123:00+16з1213571 0.0 10151495
02:00+16зсз1011599 0.0 10141812
05:00+15зсз1414535 0.3 10152111
08:00+15сз13134953 0.3 10162682
11:00+14ссз1011525 0.0 10191942
14:00+14сз77544 0.0 10191401
17:00+14сз77532 0.0 10191246
20:00+14сз66480 0.0 10201043